Voltar ao catálogo

STARLINK-34015

AtivoComunicaçõesVLEO
NORAD 63854·PAYLOAD·🇺🇸 United States

Lançado May 7, 2025 de Cape Canaveral Space Force Station

Loading…

Próximas Passagens (próximas 24 horas)

TLE

AtualizadoSource: CelesTrak SupGP

Época: Sep 14, 2026, 20:42 UTC

1 63854C 25093U   26257.86298611 -.00030273  00000+0 -10965-2 0  2574
2 63854  42.9994  89.8786 0001322 270.0501 309.3463 15.27594190    16

Acompanhe STARLINK-34015 em tempo real com AllMySat

Download on the App Store